{"data":{"norad_id":58160,"intl_designator":"2023-166L","name":"STARLINK-30779","alt_names":[],"object_type":"PAYLOAD","status":"ACTIVE","operator":null,"country":"US","launch_date":"2023-10-29","launch_site_code":"AFWTR","launch_vehicle":null,"mission":null,"orbit_class":"UNKNOWN","rcs_meters":null,"size_class":null,"mass_kg":null,"dimensions":null,"purposes":["comms"],"wikipedia_slug":null,"has_3d_model":false,"image_url":null,"decayed_at":null,"tle_current":{"epoch":"2026-09-20T14:56:38.440896Z","epoch_age_seconds":129889,"freshness":"FRESH","line1":"1 58160U 23166L   26263.62266714 -.00000176  00000+0  60776-5 0  9996","line2":"2 58160  53.1590  32.8079 0001188  91.7311 268.3826 15.31700282163042","mean_motion":15.31700282,"eccentricity":0.0001188,"inclination_deg":53.159,"raan_deg":32.8079,"arg_perigee_deg":91.7311,"mean_anomaly_deg":268.3826,"bstar":6.0776e-6,"rev_number":16304,"period_min":94.013170652403,"perigee_km":469.92550811129,"apogee_km":471.55280108562,"semimajor_km":6848.8761545985,"source":"CELESTRAK","updated_at":"2026-09-21T09:00:33.797600Z"}}}